FW9581 Weather Reports


time (UTC)temp
F
wind
direction
speed
knots
gust
knots
rain 1hr
in
rain 24hr
in
rain mn
in
humidity
%
barometer
mb
20260507234635 65 249 0.0 0.9 0.00 0.08 0.00 66 1010.3
20260507233049 65 249 0.0 0.9 0.00 0.08 0.00 66 1010.4
20260507231620 65 250 0.0 3.5 0.00 0.08 0.00 65 1010.6
20260507230114 66 250 0.0 0.9 0.00 0.08 0.00 64 1010.7
20260507224635 66 250 0.0 0.9 0.00 0.08 0.00 64 1010.7
20260507223144 66 250 0.9 3.5 0.00 0.08 0.00 63 1010.7
20260507221524 67 249 0.0 1.7 0.00 0.08 0.00 65 1010.5
20260507220120 67 249 0.0 0.9 0.00 0.08 0.00 64 1010.4
20260507214621 67 249 0.0 1.7 0.00 0.08 0.08 64 1010.6
20260507213141 68 249 0.0 3.5 0.00 0.08 0.08 63 1010.7
20260507211513 68 249 0.0 1.7 0.00 0.08 0.08 64 1010.6
20260507210119 68 249 0.0 3.5 0.00 0.08 0.08 64 1010.5
20260507204632 68 249 0.9 4.3 0.00 0.08 0.08 65 1010.8
20260507203019 67 249 0.0 0.9 0.00 0.08 0.08 66 1010.9
20260507201616 67 249 0.0 0.0 0.00 0.08 0.08 65 1011.0
20260507200130 67 249 0.0 1.7 0.00 0.08 0.08 65 1011.1
20260507194555 67 249 0.0 1.7 0.00 0.08 0.08 65 1011.1
20260507193111 67 249 0.0 1.7 0.00 0.08 0.08 64 1011.1
20260507191625 67 249 0.0 0.9 0.00 0.08 0.08 63 1011.3
20260507190012 67 249 0.0 1.7 0.00 0.08 0.08 62 1011.3
20260507184613 67 249 0.0 6.1 0.00 0.08 0.08 60 1011.1
20260507183132 67 249 0.0 7.0 0.00 0.08 0.08 60 1011.1
20260507181505 67 251 5.2 8.7 0.00 0.08 0.08 59 1010.8
20260507180018 67 241 1.7 9.6 0.00 0.08 0.08 59 1010.9
20260507174621 68 241 4.3 8.7 0.00 0.08 0.08 58 1010.8
20260507173142 67 249 2.6 9.6 0.00 0.08 0.08 61 1010.9
20260507171516 68 251 6.1 9.6 0.00 0.08 0.08 62 1010.9
20260507170118 68 256 6.1 10.4 0.00 0.08 0.08 62 1011.0
20260507164630 69 255 3.5 9.6 0.00 0.08 0.08 60 1010.8
20260507163148 69 251 5.2 8.7 0.00 0.08 0.08 62 1011.0
20260507161556 71 246 4.3 9.6 0.00 0.08 0.08 60 1011.1
20260507160116 72 247 5.2 7.8 0.00 0.08 0.08 58 1011.1
20260507154629 73 260 3.5 7.8 0.00 0.08 0.08 56 1011.1
20260507153006 74 271 0.9 5.2 0.00 0.08 0.08 52 1011.1
20260507151523 74 264 0.9 4.3 0.00 0.08 0.08 54 1011.2
20260507150120 74 263 4.3 7.0 0.00 0.08 0.08 54 1011.6
20260507144632 75 281 0.9 6.1 0.00 0.08 0.08 54 1011.6
20260507143003 74 274 0.0 7.0 0.00 0.08 0.08 55 1011.4
20260507141521 74 247 4.3 7.8 0.00 0.08 0.08 56 1011.7
20260507140132 75 249 0.9 7.0 0.00 0.08 0.08 55 1011.9
20260507134632 76 259 0.9 9.6 0.00 0.08 0.08 53 1012.1
20260507133002 77 266 0.9 6.1 0.00 0.08 0.08 50 1012.1
20260507131625 76 267 0.9 7.0 0.00 0.08 0.08 53 1012.3
20260507130123 76 292 0.9 4.3 0.00 0.08 0.08 48 1012.5
20260507124642 77 295 0.9 7.0 0.00 0.08 0.08 50 1012.6
20260507123014 76 311 0.0 2.6 0.00 0.08 0.08 51 1012.9
20260507121614 76 316 1.7 4.3 0.00 0.08 0.08 51 1013.1
20260507120137 76 321 2.6 7.0 0.00 0.08 0.08 51 1012.9
20260507114643 77 276 0.0 3.5 0.00 0.08 0.08 51 1012.9
20260507113004 75 266 0.9 7.8 0.00 0.08 0.08 55 1013.1
20260507111559 75 301 0.0 4.3 0.00 0.08 0.08 54 1013.3
20260507110110 74 328 0.0 3.5 0.00 0.08 0.08 54 1013.7
20260507104630 73 220 0.9 5.2 0.00 0.08 0.08 54 1013.7
20260507103133 74 219 0.0 2.6 0.00 0.08 0.08 54 1013.9
20260507101640 73 213 1.7 4.3 0.00 0.08 0.08 55 1014.1
20260507100005 72 190 0.0 3.5 0.00 0.08 0.08 55 1014.0
20260507094509 71 189 1.7 6.1 0.00 0.08 0.08 56 1013.9
20260507093106 72 179 0.9 4.3 0.00 0.08 0.08 55 1014.0
20260507091616 71 179 3.5 6.1 0.00 0.08 0.08 53 1014.2
20260507090124 72 135 0.9 2.6 0.00 0.08 0.08 56 1014.1
20260507084632 70 135 0.0 5.2 0.00 0.08 0.08 60 1013.9
20260507083003 71 152 0.0 1.7 0.00 0.08 0.08 60 1014.1
20260507081555 69 152 0.0 1.7 0.00 0.08 0.08 61 1014.2
20260507080023 68 152 0.0 1.7 0.00 0.08 0.08 62 1014.3
20260507074617 67 152 0.0 1.7 0.00 0.08 0.08 65 1014.3
20260507073125 66 152 0.0 1.7 0.00 0.08 0.08 68 1014.3
20260507071626 65 152 0.0 3.5 0.00 0.08 0.08 70 1014.3
20260507070133 64 152 0.0 2.6 0.00 0.08 0.08 73 1014.4
20260507064637 62 152 0.0 3.5 0.00 0.08 0.08 76 1014.2
20260507063101 61 152 0.0 3.5 0.00 0.08 0.08 76 1014.2
20260507061614 62 152 0.0 3.5 0.00 0.08 0.08 77 1014.3
20260507060124 62 204 0.0 1.7 0.00 0.08 0.08 76 1014.2
20260507054508 62 204 0.0 0.9 0.00 0.08 0.08 78 1014.1
20260507053057 61 204 0.0 0.0 0.00 0.08 0.08 81 1014.1
20260507051636 60 204 0.0 0.9 0.00 0.08 0.08 84 1014.2
20260507050004 58 204 0.9 2.6 0.00 0.08 0.08 85 1014.0
20260507044502 58 204 0.0 0.9 0.00 0.08 0.08 86 1013.8
20260507043017 57 204 0.0 0.0 0.00 0.08 0.08 86 1013.5
20260507041611 57 204 0.0 1.7 0.00 0.08 0.08 86 1013.5
20260507040125 58 204 0.0 0.0 0.00 0.08 0.08 85 1013.5
20260507034634 58 204 0.0 2.6 0.00 0.08 0.08 85 1013.6
20260507033015 58 203 0.0 6.1 0.00 0.08 0.08 85 1013.8
20260507031614 58 129 0.9 3.5 0.00 0.08 0.08 86 1013.6
20260507030129 58 126 4.3 6.1 0.01 0.08 0.08 86 1013.2
20260507024643 58 112 1.7 6.1 0.02 0.08 0.08 85 1013.1
20260507023020 58 184 3.5 5.2 0.02 0.08 0.08 85 1013.0
20260507021618 58 271 0.9 3.5 0.02 0.08 0.08 83 1013.5
20260507020132 58 271 0.0 1.7 0.01 0.07 0.07 83 1013.6
20260507014510 58 178 2.6 7.8 0.00 0.06 0.06 82 1013.6
20260507013110 58 174 3.5 10.4 0.02 0.06 0.06 81 1013.7
20260507011626 58 207 4.3 11.3 0.03 0.06 0.06 81 1013.7
20260507010140 57 143 2.6 7.8 0.03 0.06 0.06 83 1013.7
20260507004517 57 147 0.9 6.1 0.06 0.06 0.06 85 1013.9
20260507003113 57 147 2.6 4.3 0.05 0.05 0.05 82 1013.9
20260507001618 58 147 1.7 3.5 0.03 0.03 0.03 84 1014.1
20260507000126 58 147 0.0 2.6 0.03 0.03 0.03 83 1014.1